| time (UTC) | temp C | wind direction | speed KPH | gust KPH | rain 1hr cm | rain 24hr cm | rain mn cm | humidity % | barometer mb |
| 20260504174530 | 20 | 304 | 4.8 | 22.5 | 0.00 | 0.00 | 0.00 | 26 | 1009.9 |
| 20260504173029 | 20 | 252 | 4.8 | 12.9 | 0.00 | 0.00 | 0.00 | 29 | 1010.2 |
| 20260504171530 | 20 | 117 | 6.4 | 19.3 | 0.00 | 0.00 | 0.00 | 32 | 1010.5 |
| 20260504081543 | 0 | 0 | 0.0 | 0.0 | 0.00 | 0.00 | 0.00 | 67 | 1013.5 |
| 20260504044533 | 2 | 0 | 0.0 | 0.0 | 0.00 | 0.00 | 0.00 | 66 | 1013.3 |
| 20260504043039 | 2 | 0 | 0.0 | 0.0 | 0.00 | 0.00 | 0.00 | 66 | 1013.2 |
| 20260504041530 | 3 | 0 | 0.0 | 0.0 | 0.00 | 0.00 | 0.00 | 66 | 1013.0 |
| 20260504040039 | 3 | 0 | 0.0 | 0.0 | 0.00 | 0.00 | 0.00 | 64 | 1012.9 |
| 20260504034530 | 3 | 0 | 0.0 | 0.0 | 0.00 | 0.00 | 0.00 | 62 | 1012.7 |
| 20260504033031 | 4 | 0 | 0.0 | 0.0 | 0.00 | 0.00 | 0.00 | 59 | 1012.6 |
| 20260504031533 | 5 | 0 | 0.0 | 0.0 | 0.00 | 0.00 | 0.00 | 59 | 1012.6 |
| 20260504030032 | 5 | 0 | 0.0 | 0.0 | 0.00 | 0.00 | 0.00 | 57 | 1012.5 |
| 20260504024533 | 6 | 0 | 0.0 | 0.0 | 0.00 | 0.00 | 0.00 | 53 | 1012.5 |
| 20260504023035 | 6 | 0 | 0.0 | 0.0 | 0.00 | 0.00 | 0.00 | 53 | 1012.5 |
| 20260504021530 | 6 | 0 | 0.0 | 0.0 | 0.00 | 0.00 | 0.00 | 51 | 1012.6 |
| 20260504020032 | 6 | 0 | 0.0 | 1.6 | 0.00 | 0.00 | 0.00 | 50 | 1012.5 |
| 20260504014538 | 6 | 0 | 0.0 | 0.0 | 0.00 | 0.00 | 0.00 | 50 | 1012.3 |
| 20260504013037 | 6 | 0 | 0.0 | 0.0 | 0.00 | 0.00 | 0.00 | 48 | 1012.3 |
| 20260504011531 | 7 | 0 | 0.0 | 0.0 | 0.00 | 0.00 | 0.00 | 47 | 1012.2 |
| 20260504010030 | 8 | 0 | 0.0 | 0.0 | 0.00 | 0.00 | 0.00 | 43 | 1012.1 |
| 20260504004714 | 9 | 0 | 0.0 | 0.0 | 0.00 | 0.00 | 0.00 | 40 | 1012.0 |
| 20260504004533 | 9 | 0 | 0.0 | 0.0 | 0.00 | 0.00 | 0.00 | 40 | 1012.0 |
| 20260504003031 | 10 | 0 | 0.0 | 0.0 | 0.00 | 0.00 | 0.00 | 36 | 1011.7 |
| 20260504001541 | 10 | 0 | 0.0 | 0.0 | 0.00 | 0.00 | 0.00 | 33 | 1011.5 |
| 20260504000032 | 11 | 0 | 0.0 | 0.0 | 0.00 | 0.00 | 0.00 | 32 | 1011.5 |
| 20260503234530 | 12 | 0 | 0.0 | 3.2 | 0.00 | 0.00 | 0.00 | 30 | 1011.3 |
| 20260503233033 | 12 | 0 | 0.0 | 4.8 | 0.00 | 0.00 | 0.00 | 29 | 1011.0 |
| 20260503231533 | 12 | 0 | 0.0 | 9.7 | 0.00 | 0.00 | 0.00 | 28 | 1011.0 |
| 20260503230029 | 13 | 0 | 0.0 | 4.8 | 0.00 | 0.00 | 0.00 | 28 | 1010.9 |
| 20260503224534 | 13 | 287 | 1.6 | 14.5 | 0.00 | 0.00 | 0.00 | 27 | 1010.8 |
| 20260503223032 | 14 | 0 | 0.0 | 8.0 | 0.00 | 0.00 | 0.00 | 28 | 1010.8 |
| 20260503221529 | 15 | 172 | 0.0 | 9.7 | 0.00 | 0.00 | 0.00 | 26 | 1010.9 |
| 20260503220041 | 15 | 98 | 0.0 | 6.4 | 0.00 | 0.00 | 0.00 | 26 | 1010.9 |
| 20260503214530 | 15 | 243 | 3.2 | 9.7 | 0.00 | 0.00 | 0.00 | 25 | 1010.8 |
| 20260503213030 | 16 | 0 | 0.0 | 8.0 | 0.00 | 0.00 | 0.00 | 26 | 1010.7 |
| 20260503211532 | 16 | 91 | 4.8 | 20.9 | 0.00 | 0.00 | 0.00 | 25 | 1010.4 |
| 20260503210031 | 16 | 229 | 3.2 | 12.9 | 0.00 | 0.00 | 0.00 | 23 | 1010.4 |
| 20260503204532 | 16 | 0 | 1.6 | 9.7 | 0.00 | 0.00 | 0.00 | 26 | 1010.4 |
| 20260503203045 | 16 | 130 | 1.6 | 6.4 | 0.00 | 0.00 | 0.00 | 27 | 1010.6 |
| 20260503201533 | 16 | 124 | 3.2 | 12.9 | 0.00 | 0.00 | 0.00 | 24 | 1010.7 |
| 20260503200032 | 15 | 185 | 3.2 | 22.5 | 0.00 | 0.00 | 0.00 | 23 | 1010.8 |
| 20260503194539 | 15 | 150 | 4.8 | 19.3 | 0.00 | 0.00 | 0.00 | 24 | 1010.9 |
| 20260503193038 | 14 | 212 | 3.2 | 12.9 | 0.00 | 0.00 | 0.00 | 23 | 1011.2 |
| 20260503191536 | 14 | 262 | 3.2 | 9.7 | 0.00 | 0.00 | 0.00 | 24 | 1011.4 |
| 20260503190038 | 13 | 108 | 4.8 | 14.5 | 0.00 | 0.00 | 0.00 | 23 | 1011.6 |
| 20260503184530 | 15 | 153 | 3.2 | 9.7 | 0.00 | 0.00 | 0.00 | 28 | 1011.8 |
| 20260503183034 | 13 | 209 | 3.2 | 14.5 | 0.00 | 0.00 | 0.00 | 25 | 1012.0 |
| 20260503181530 | 14 | 273 | 3.2 | 14.5 | 0.00 | 0.00 | 0.00 | 30 | 1011.9 |
| 20260503180035 | 14 | 162 | 3.2 | 11.3 | 0.00 | 0.00 | 0.00 | 25 | 1012.2 |